Jefferson, GA

7:55 PM EDT on April 27, 2017 (GMT -0400)
Jefferson

Weather History for K19A - October, 2013

Change the Weather History Date:

Tuesday, October 29, 2013

  Actual Average (KWDR) Record (KWDR)
Temperature  
Mean Temperature 61 °F -  
Max Temperature 71 °F 70 °F 86 °F (2016)
Min Temperature 51 °F 46 °F 27 °F (1976)
Degree Days  
Heating Degree Days 4    
Growing Degree Days 11 (Base 50)    
Moisture  
Dew Point 49 °F    
Average Humidity 67    
Maximum Humidity 100    
Minimum Humidity 33    
Precipitation  
Precipitation 0.00 in - - ()
Sea Level Pressure  
Sea Level Pressure 30.29 in    
Wind  
Wind Speed 0 mph (SE)    
Max Wind Speed 6 mph    
Max Gust Speed -    
Visibility 8 miles    
Events Fog    
Averages and records for this station are not official NWS values.
T = Trace of Precipitation, MM = Missing Value Source: NWS Daily Summary

Daily Weather History Graph

Daily Weather History Graph

Search for Another Location

Airport or City:

Trip Planner

Search our weather history database for the weather conditions in past years. The results will help you decide how hot, cold, wet, or windy it might be!

Date:

Astronomy

Oct. 29, 2013 Rise Set
Actual Time 7:51 AM EDT 6:43 PM EDT
Civil Twilight 7:25 AM EDT 7:09 PM EDT
Nautical Twilight 6:56 AM EDT 7:39 PM EDT
Astronomical Twilight 6:27 AM EDT 8:08 PM EDT
Moon 2:53 AM EDT (10/29) 3:45 PM EDT (10/29)
Length of Visible Light 11h 43m
Length of Day
10h 52m
Waning Crescent, 25% of the Moon is Illuminated
Oct 29
Waning Crescent
Nov 3
New
Nov 10
First Quarter
Nov 17
Full
Nov 25
Last Quarter

Hourly Weather History & Observations

Time (EDT) Temp. Dew Point Humidity Pressure Visibility Wind Dir Wind Speed Gust Speed Precip Events Conditions
12:15 AM 55.4 °F 55.4 °F 100% 30.28 in 10.0 mi Calm Calm - N/A   Clear
12:35 AM 55.4 °F 55.4 °F 100% 30.27 in 7.0 mi Calm Calm - N/A   Scattered Clouds
12:55 AM 55.4 °F 53.6 °F 94% 30.27 in 4.0 mi Calm Calm - N/A   Scattered Clouds
1:15 AM 53.6 °F 53.6 °F 100% 30.27 in 3.0 mi Calm Calm - N/A   Clear
1:35 AM 53.6 °F 53.6 °F 100% 30.27 in 0.5 mi Calm Calm - N/A Fog Fog
1:55 AM 53.6 °F 53.6 °F 100% 30.26 in 5.0 mi Calm Calm - N/A   Scattered Clouds
2:15 AM 53.6 °F 51.8 °F 94% 30.27 in 5.0 mi Calm Calm - N/A   Scattered Clouds
2:35 AM 53.6 °F 53.6 °F 100% 30.27 in 4.0 mi Calm Calm - N/A   Scattered Clouds
2:55 AM 53.6 °F 51.8 °F 94% 30.27 in 0.8 mi Calm Calm - N/A   Mist
3:15 AM 51.8 °F 51.8 °F 100% 30.27 in 4.0 mi Calm Calm - N/A   Clear
3:35 AM 53.6 °F 53.6 °F 100% 30.27 in 1.2 mi Calm Calm - N/A   Scattered Clouds
3:55 AM 51.8 °F 51.8 °F 100% 30.27 in 5.0 mi Calm Calm - N/A   Scattered Clouds
4:15 AM 51.8 °F 51.8 °F 100% 30.27 in 4.0 mi Calm Calm - N/A   Scattered Clouds
4:35 AM 53.6 °F 51.8 °F 94% 30.28 in 4.0 mi Calm Calm - N/A   Mostly Cloudy
4:55 AM 53.6 °F 53.6 °F 100% 30.29 in 4.0 mi Calm Calm - N/A   Overcast
5:15 AM 53.6 °F 53.6 °F 100% 30.28 in 5.0 mi Calm Calm - N/A   Overcast
9:55 AM 59.0 °F 53.6 °F 82% 30.35 in 10.0 mi Calm Calm - N/A   Overcast
10:35 AM 60.8 °F 48.2 °F 63% 30.35 in 10.0 mi Calm Calm - N/A   Overcast
10:55 AM 60.8 °F 50.0 °F 68% 30.35 in 10.0 mi Calm Calm - N/A   Mostly Cloudy
11:15 AM 62.6 °F 46.4 °F 55% 30.35 in 10.0 mi East 3.5 mph - N/A   Scattered Clouds
11:35 AM 64.4 °F 46.4 °F 52% 30.35 in 10.0 mi Calm Calm - N/A   Clear
11:55 AM 68.0 °F 46.4 °F 46% 30.35 in 10.0 mi Calm Calm - N/A   Clear
12:15 PM 68.0 °F 44.6 °F 43% 30.34 in 10.0 mi Calm Calm - N/A   Clear
12:35 PM 69.8 °F 44.6 °F 40% 30.34 in 10.0 mi Calm Calm - N/A   Clear
12:55 PM 69.8 °F 41.0 °F 35% 30.33 in 10.0 mi Calm Calm - N/A   Clear
1:15 PM 71.6 °F 41.0 °F 33% 30.32 in 10.0 mi SSW 3.5 mph - N/A   Scattered Clouds
1:35 PM 69.8 °F 42.8 °F 38% 30.31 in 10.0 mi Calm Calm - N/A   Overcast
1:55 PM 69.8 °F 42.8 °F 38% 30.30 in 10.0 mi Calm Calm - N/A   Overcast
2:15 PM 69.8 °F 42.8 °F 38% 30.30 in 10.0 mi Calm Calm - N/A   Overcast
2:35 PM 69.8 °F 44.6 °F 40% 30.29 in 10.0 mi Calm Calm - N/A   Overcast
2:55 PM 71.6 °F 42.8 °F 35% 30.28 in 10.0 mi Calm Calm - N/A   Overcast
3:15 PM 71.6 °F 42.8 °F 35% 30.27 in 10.0 mi Calm Calm - N/A   Mostly Cloudy
3:35 PM 71.6 °F 42.8 °F 35% 30.27 in 10.0 mi SSE 4.6 mph - N/A   Scattered Clouds
3:55 PM 71.6 °F 42.8 °F 35% 30.27 in 10.0 mi ESE 3.5 mph - N/A   Mostly Cloudy
4:15 PM 71.6 °F 42.8 °F 35% 30.27 in 10.0 mi Calm Calm - N/A   Scattered Clouds
4:35 PM 71.6 °F 42.8 °F 35% 30.26 in 10.0 mi ESE 5.8 mph - N/A   Mostly Cloudy
4:55 PM 71.6 °F 44.6 °F 38% 30.26 in 10.0 mi SE 3.5 mph - N/A   Scattered Clouds
5:15 PM 69.8 °F 46.4 °F 43% 30.26 in 10.0 mi Calm Calm - N/A   Clear
5:35 PM 71.6 °F 44.6 °F 38% 30.26 in 10.0 mi Calm Calm - N/A   Clear
5:55 PM 69.8 °F 46.4 °F 43% 30.26 in 10.0 mi Calm Calm - N/A   Clear
6:15 PM 68.0 °F 50.0 °F 52% 30.27 in 10.0 mi Calm Calm - N/A   Clear
6:35 PM 66.2 °F 51.8 °F 60% 30.27 in 10.0 mi Calm Calm - N/A   Clear
6:55 PM 64.4 °F 51.8 °F 64% 30.27 in 10.0 mi Calm Calm - N/A   Clear
7:15 PM 62.6 °F 51.8 °F 68% 30.27 in 10.0 mi Calm Calm - N/A   Scattered Clouds
7:35 PM 62.6 °F 53.6 °F 72% 30.29 in 10.0 mi Calm Calm - N/A   Clear
7:55 PM 62.6 °F 50.0 °F 63% 30.28 in 10.0 mi Calm Calm - N/A   Clear
8:15 PM 62.6 °F 51.8 °F 68% 30.29 in 10.0 mi Calm Calm - N/A   Clear
8:35 PM 62.6 °F 50.0 °F 63% 30.29 in 10.0 mi Calm Calm - N/A   Mostly Cloudy
8:55 PM 62.6 °F 50.0 °F 63% 30.29 in 10.0 mi Calm Calm - N/A   Overcast
9:15 PM 62.6 °F 51.8 °F 68% 30.29 in 10.0 mi Calm Calm - N/A   Scattered Clouds
9:35 PM 60.8 °F 51.8 °F 72% 30.30 in 10.0 mi Calm Calm - N/A   Clear
9:55 PM 59.0 °F 55.4 °F 88% 30.29 in 10.0 mi Calm Calm - N/A   Scattered Clouds
10:15 PM 60.8 °F 55.4 °F 82% 30.29 in 10.0 mi Calm Calm - N/A   Scattered Clouds
10:35 PM 60.8 °F 53.6 °F 77% 30.29 in 10.0 mi Calm Calm - N/A   Clear
10:55 PM 62.6 °F 51.8 °F 68% 30.29 in 10.0 mi Calm Calm - N/A   Clear
11:15 PM 60.8 °F 51.8 °F 72% 30.29 in 10.0 mi Calm Calm - N/A   Clear
11:35 PM 62.6 °F 51.8 °F 68% 30.28 in 10.0 mi Calm Calm - N/A   Clear
11:55 PM 60.8 °F 51.8 °F 72% 30.28 in 10.0 mi Calm Calm - N/A   Clear